Time,TemperatureF,DewpointF,PressureIn,WindDirection,WindDirectionDegrees,WindSpeedMPH,WindSpeedGustMPH,Humidity,HourlyPrecipIn,Conditions,Clouds,dailyrainin,SolarRadiationWatts/m^2,SoftwareType,DateUTC
2013-05-14 00:08:00,52.5,49.0,30.03,NNW,340,4.0,9.0,87,0.00,,,0.00,0,weatherlink.com 1.10,2013-05-14 07:08:00,
2013-05-14 00:24:00,52.5,49.0,30.03,NW,326,3.0,9.0,87,0.00,,,0.00,0,weatherlink.com 1.10,2013-05-14 07:24:00,
2013-05-14 00:39:00,52.0,49.0,30.03,NW,319,3.0,10.0,88,0.00,,,0.00,0,weatherlink.com 1.10,2013-05-14 07:39:00,
2013-05-14 00:54:00,52.0,49.0,30.03,NW,309,3.0,12.0,88,0.00,,,0.00,0,weatherlink.com 1.10,2013-05-14 07:54:00,
2013-05-14 01:09:00,52.4,49.0,30.03,North,355,4.0,12.0,88,0.00,,,0.00,0,weatherlink.com 1.10,2013-05-14 08:09:00,
2013-05-14 01:24:00,52.2,49.0,30.02,NNW,343,1.0,9.0,88,0.00,,,0.00,0,weatherlink.com 1.10,2013-05-14 08:24:00,
2013-05-14 01:39:00,52.1,49.0,30.02,NNW,334,3.0,7.0,88,0.00,,,0.00,0,weatherlink.com 1.10,2013-05-14 08:39:00,
2013-05-14 01:54:00,52.1,49.0,30.02,NNW,331,8.0,13.0,88,0.00,,,0.00,0,weatherlink.com 1.10,2013-05-14 08:54:00,
2013-05-14 02:09:00,52.1,48.0,30.02,NNW,336,2.0,10.0,87,0.00,,,0.00,0,weatherlink.com 1.10,2013-05-14 09:09:00,
2013-05-14 02:24:00,52.1,49.0,30.02,NNW,347,7.0,8.0,88,0.00,,,0.00,0,weatherlink.com 1.10,2013-05-14 09:24:00,
2013-05-14 02:39:00,52.1,48.0,30.01,NNW,348,3.0,5.0,87,0.00,,,0.00,0,weatherlink.com 1.10,2013-05-14 09:39:00,
2013-05-14 02:54:00,51.6,48.0,30.01,NW,313,1.0,9.0,87,0.00,,,0.00,0,weatherlink.com 1.10,2013-05-14 09:54:00,
2013-05-14 03:09:00,51.3,48.0,30.01,NW,312,7.0,10.0,88,0.00,,,0.00,0,weatherlink.com 1.10,2013-05-14 10:09:00,
2013-05-14 03:24:00,51.2,48.0,30.01,NW,324,3.0,9.0,88,0.00,,,0.00,0,weatherlink.com 1.10,2013-05-14 10:24:00,
2013-05-14 03:39:00,51.2,48.0,30.01,NW,313,4.0,9.0,89,0.00,,,0.00,0,weatherlink.com 1.10,2013-05-14 10:39:00,
2013-05-14 03:54:00,51.2,48.0,30.01,NNW,347,4.0,10.0,89,0.00,,,0.00,0,weatherlink.com 1.10,2013-05-14 10:54:00,
2013-05-14 04:09:00,51.0,48.0,30.01,NNW,348,5.0,8.0,89,0.00,,,0.00,0,weatherlink.com 1.10,2013-05-14 11:09:00,
2013-05-14 04:24:00,51.2,48.0,30.01,North,355,2.0,7.0,88,0.00,,,0.00,0,weatherlink.com 1.10,2013-05-14 11:24:00,
2013-05-14 04:39:00,51.1,48.0,30.00,North,351,2.0,6.0,88,0.00,,,0.00,0,weatherlink.com 1.10,2013-05-14 11:39:00,
2013-05-14 04:54:00,50.9,48.0,30.00,NW,324,6.0,8.0,88,0.00,,,0.00,0,weatherlink.com 1.10,2013-05-14 11:54:00,
2013-05-14 05:09:00,51.4,48.0,30.00,NNW,347,3.0,10.0,88,0.00,,,0.00,0,weatherlink.com 1.10,2013-05-14 12:09:00,
2013-05-14 05:24:00,51.0,48.0,30.00,NNW,341,1.0,4.0,90,0.00,,,0.00,,weatherlink.com 1.10,2013-05-14 12:24:00,
2013-05-14 05:39:00,50.7,48.0,30.01,NNW,333,1.0,6.0,91,0.00,,,0.00,,weatherlink.com 1.10,2013-05-14 12:39:00,
2013-05-14 05:54:00,50.5,48.0,30.00,NW,314,3.0,7.0,92,0.00,,,0.00,,weatherlink.com 1.10,2013-05-14 12:54:00,
2013-05-14 06:09:00,50.5,48.0,30.00,NW,325,5.0,7.0,91,0.00,,,0.00,,weatherlink.com 1.10,2013-05-14 13:09:00,
2013-05-14 06:24:00,49.6,47.0,30.00,NNW,331,0.0,3.0,91,0.00,,,0.00,,weatherlink.com 1.10,2013-05-14 13:24:00,
2013-05-14 06:39:00,50.1,48.0,30.01,NNW,327,3.0,4.0,91,0.00,,,0.00,,weatherlink.com 1.10,2013-05-14 13:39:00,
2013-05-14 06:54:00,50.1,47.0,30.01,NNW,341,0.0,3.0,90,0.00,,,0.00,,weatherlink.com 1.10,2013-05-14 13:54:00,
2013-05-14 07:09:00,50.8,48.0,30.01,NNW,327,2.0,4.0,90,0.00,,,0.00,,weatherlink.com 1.10,2013-05-14 14:09:00,
2013-05-14 07:24:00,51.7,48.0,30.00,NNW,329,5.0,6.0,88,0.00,,,0.00,,weatherlink.com 1.10,2013-05-14 14:24:00,
2013-05-14 07:39:00,52.6,49.0,30.01,NW,309,3.0,6.0,86,0.00,,,0.00,,weatherlink.com 1.10,2013-05-14 14:39:00,
2013-05-14 07:54:00,54.1,49.0,30.01,NW,306,9.0,13.0,84,0.00,,,0.00,,weatherlink.com 1.10,2013-05-14 14:54:00,
2013-05-14 08:09:00,54.7,50.0,30.01,NNW,342,9.0,17.0,83,0.00,,,0.00,,weatherlink.com 1.10,2013-05-14 15:09:00,
2013-05-14 08:25:00,55.1,50.0,30.01,NNW,336,6.0,8.0,83,0.00,,,0.00,,weatherlink.com 1.10,2013-05-14 15:25:00,
2013-05-14 08:40:00,56.2,51.0,30.01,NW,324,5.0,9.0,82,0.00,,,0.00,,weatherlink.com 1.10,2013-05-14 15:40:00,
2013-05-14 08:55:00,56.2,50.0,30.01,NNW,343,10.0,17.0,81,0.00,,,0.00,,weatherlink.com 1.10,2013-05-14 15:55:00,
2013-05-14 09:10:00,56.9,50.0,30.02,NNW,333,8.0,13.0,79,0.00,,,0.00,,weatherlink.com 1.10,2013-05-14 16:10:00,
2013-05-14 09:25:00,57.2,51.0,30.02,North,5,8.0,14.0,79,0.00,,,0.00,,weatherlink.com 1.10,2013-05-14 16:25:00,
2013-05-14 09:40:00,58.1,51.0,30.02,NW,316,7.0,16.0,77,0.00,,,0.00,,weatherlink.com 1.10,2013-05-14 16:40:00,
2013-05-14 09:55:00,58.4,51.0,30.02,NNW,343,15.0,17.0,77,0.00,,,0.00,,weatherlink.com 1.10,2013-05-14 16:55:00,
2013-05-14 10:10:00,58.9,51.0,30.02,NNW,331,6.0,14.0,76,0.00,,,0.00,,weatherlink.com 1.10,2013-05-14 17:10:00,
2013-05-14 10:25:00,59.2,52.0,30.02,NNW,328,6.0,13.0,76,0.00,,,0.00,,weatherlink.com 1.10,2013-05-14 17:25:00,
2013-05-14 10:40:00,60.2,52.0,30.02,NNW,345,8.0,17.0,74,0.00,,,0.00,,weatherlink.com 1.10,2013-05-14 17:40:00,
2013-05-14 10:55:00,60.7,52.0,30.02,NNW,328,7.0,17.0,74,0.00,,,0.00,,weatherlink.com 1.10,2013-05-14 17:55:00,
2013-05-14 11:10:00,60.9,52.0,30.02,NW,319,7.0,15.0,73,0.00,,,0.00,,weatherlink.com 1.10,2013-05-14 18:10:00,
2013-05-14 11:25:00,61.2,52.0,30.03,NW,307,10.0,16.0,72,0.00,,,0.00,,weatherlink.com 1.10,2013-05-14 18:25:00,
2013-05-14 11:40:00,61.8,52.0,30.02,NNW,327,11.0,14.0,71,0.00,,,0.00,,weatherlink.com 1.10,2013-05-14 18:40:00,
2013-05-14 11:55:00,62.1,52.0,30.02,NW,322,5.0,15.0,70,0.00,,,0.00,,weatherlink.com 1.10,2013-05-14 18:55:00,
2013-05-14 12:10:00,62.7,53.0,30.02,WNW,298,3.0,15.0,71,0.00,,,0.00,,weatherlink.com 1.10,2013-05-14 19:10:00,
2013-05-14 12:25:00,63.4,53.0,30.02,NNW,340,2.0,13.0,68,0.00,,,0.00,,weatherlink.com 1.10,2013-05-14 19:25:00,
2013-05-14 12:40:00,63.7,52.0,30.02,WNW,294,5.0,16.0,67,0.00,,,0.00,,weatherlink.com 1.10,2013-05-14 19:40:00,
2013-05-14 12:55:00,62.6,52.0,30.02,WNW,294,6.0,16.0,69,0.00,,,0.00,,weatherlink.com 1.10,2013-05-14 19:55:00,
2013-05-14 13:10:00,64.8,53.0,30.02,WNW,296,8.0,17.0,66,0.00,,,0.00,,weatherlink.com 1.10,2013-05-14 20:10:00,
2013-05-14 13:25:00,63.4,53.0,30.02,WNW,300,6.0,18.0,69,0.00,,,0.00,,weatherlink.com 1.10,2013-05-14 20:25:00,
2013-05-14 13:40:00,62.4,52.0,30.02,NW,325,6.0,24.0,70,0.00,,,0.00,,weatherlink.com 1.10,2013-05-14 20:40:00,
2013-05-14 13:55:00,63.7,52.0,30.02,West,273,6.0,19.0,67,0.00,,,0.00,,weatherlink.com 1.10,2013-05-14 20:55:00,
2013-05-14 14:10:00,65.2,53.0,30.02,WNW,301,7.0,14.0,66,0.00,,,0.00,,weatherlink.com 1.10,2013-05-14 21:10:00,
2013-05-14 14:25:00,64.8,53.0,30.02,WNW,300,7.0,13.0,66,0.00,,,0.00,,weatherlink.com 1.10,2013-05-14 21:25:00,
2013-05-14 14:40:00,63.2,52.0,30.02,North,355,14.0,18.0,67,0.00,,,0.00,,weatherlink.com 1.10,2013-05-14 21:40:00,
2013-05-14 14:55:00,62.1,51.0,30.02,NNW,333,14.0,18.0,68,0.00,,,0.00,,weatherlink.com 1.10,2013-05-14 21:55:00,
2013-05-14 15:10:00,61.6,51.0,30.01,NW,317,6.0,20.0,69,0.00,,,0.00,,weatherlink.com 1.10,2013-05-14 22:10:00,
2013-05-14 15:25:00,62.0,51.0,30.01,NNW,338,15.0,20.0,68,0.00,,,0.00,,weatherlink.com 1.10,2013-05-14 22:25:00,
2013-05-14 15:40:00,62.1,51.0,30.01,NW,324,9.0,20.0,68,0.00,,,0.00,,weatherlink.com 1.10,2013-05-14 22:40:00,
2013-05-14 15:55:00,62.0,51.0,30.01,NNW,338,8.0,20.0,68,0.00,,,0.00,,weatherlink.com 1.10,2013-05-14 22:55:00,
2013-05-14 16:10:00,62.3,51.0,30.00,NW,317,10.0,15.0,67,0.00,,,0.00,,weatherlink.com 1.10,2013-05-14 23:10:00,
2013-05-14 16:25:00,63.2,52.0,30.00,WNW,300,5.0,15.0,66,0.00,,,0.00,,weatherlink.com 1.10,2013-05-14 23:25:00,
2013-05-14 16:40:00,64.3,52.0,30.00,NW,309,5.0,11.0,64,0.00,,,0.00,,weatherlink.com 1.10,2013-05-14 23:40:00,
2013-05-14 16:55:00,66.8,51.0,30.00,WNW,296,3.0,8.0,58,0.00,,,0.00,,weatherlink.com 1.10,2013-05-14 23:55:00,
2013-05-14 17:10:00,67.3,50.0,30.00,NW,315,1.0,12.0,54,0.00,,,0.00,,weatherlink.com 1.10,2013-05-15 00:10:00,
2013-05-14 17:25:00,66.4,49.0,30.00,WNW,302,9.0,17.0,53,0.00,,,0.00,,weatherlink.com 1.10,2013-05-15 00:25:00,
2013-05-14 17:40:00,64.7,49.0,30.01,NNW,342,10.0,13.0,58,0.00,,,0.00,,weatherlink.com 1.10,2013-05-15 00:40:00,
2013-05-14 17:55:00,63.2,49.0,30.02,WNW,296,6.0,15.0,60,0.00,,,0.00,,weatherlink.com 1.10,2013-05-15 00:55:00,
2013-05-14 18:10:00,61.0,49.0,30.02,WNW,298,8.0,16.0,64,0.00,,,0.00,,weatherlink.com 1.10,2013-05-15 01:10:00,
2013-05-14 18:25:00,60.7,48.0,30.01,WNW,302,7.0,16.0,64,0.00,,,0.00,,weatherlink.com 1.10,2013-05-15 01:25:00,
2013-05-14 18:40:00,59.6,48.0,30.02,West,267,10.0,12.0,66,0.00,,,0.00,,weatherlink.com 1.10,2013-05-15 01:40:00,
2013-05-14 18:55:00,58.3,49.0,30.02,WNW,300,7.0,16.0,70,0.00,,,0.00,,weatherlink.com 1.10,2013-05-15 01:55:00,
2013-05-14 19:10:00,57.0,48.0,30.02,NNW,331,9.0,13.0,73,0.00,,,0.00,,weatherlink.com 1.10,2013-05-15 02:10:00,
2013-05-14 19:25:00,56.3,48.0,30.02,North,360,7.0,16.0,74,0.00,,,0.00,,weatherlink.com 1.10,2013-05-15 02:25:00,
2013-05-14 19:40:00,55.6,48.0,30.02,WNW,296,5.0,11.0,76,0.00,,,0.00,,weatherlink.com 1.10,2013-05-15 02:40:00,
2013-05-14 19:55:00,54.7,48.0,30.02,NNW,332,5.0,13.0,78,0.00,,,0.00,,weatherlink.com 1.10,2013-05-15 02:55:00,
2013-05-14 20:10:00,53.9,48.0,30.03,NNW,327,3.0,9.0,80,0.00,,,0.00,,weatherlink.com 1.10,2013-05-15 03:10:00,
2013-05-14 20:25:00,53.3,48.0,30.03,NW,317,3.0,7.0,81,0.00,,,0.00,,weatherlink.com 1.10,2013-05-15 03:25:00,
2013-05-14 20:40:00,52.8,48.0,30.04,NW,321,3.0,7.0,83,0.00,,,0.00,,weatherlink.com 1.10,2013-05-15 03:40:00,
2013-05-14 20:55:00,52.5,48.0,30.04,North,355,2.0,7.0,83,0.00,,,0.00,,weatherlink.com 1.10,2013-05-15 03:55:00,
2013-05-14 21:10:00,52.3,47.0,30.05,NNW,327,0.0,2.0,83,0.00,,,0.00,,weatherlink.com 1.10,2013-05-15 04:10:00,
2013-05-14 21:25:00,51.9,47.0,30.05,NNW,329,0.0,4.0,83,0.00,,,0.00,,weatherlink.com 1.10,2013-05-15 04:25:00,
2013-05-14 21:41:00,51.7,47.0,30.06,NW,315,4.0,6.0,84,0.00,,,0.00,,weatherlink.com 1.10,2013-05-15 04:41:00,
2013-05-14 21:56:00,51.4,47.0,30.07,NNW,331,0.0,6.0,85,0.00,,,0.00,,weatherlink.com 1.10,2013-05-15 04:56:00,
2013-05-14 22:11:00,51.0,47.0,30.07,NNW,331,0.0,4.0,85,0.00,,,0.00,,weatherlink.com 1.10,2013-05-15 05:11:00,
2013-05-14 22:26:00,50.5,47.0,30.07,NNW,331,0.0,0.0,86,0.00,,,0.00,,weatherlink.com 1.10,2013-05-15 05:26:00,
2013-05-14 22:41:00,50.1,46.0,30.07,NNW,331,0.0,1.0,87,0.00,,,0.00,,weatherlink.com 1.10,2013-05-15 05:41:00,
2013-05-14 22:56:00,49.9,46.0,30.07,NW,323,4.0,6.0,87,0.00,,,0.00,,weatherlink.com 1.10,2013-05-15 05:56:00,
2013-05-14 23:11:00,50.1,46.0,30.08,NW,311,0.0,5.0,87,0.00,,,0.00,,weatherlink.com 1.10,2013-05-15 06:11:00,
2013-05-14 23:26:00,49.6,46.0,30.08,WNW,301,3.0,5.0,88,0.00,,,0.00,,weatherlink.com 1.10,2013-05-15 06:26:00,
2013-05-14 23:41:00,49.2,46.0,30.07,NW,311,0.0,4.0,88,0.00,,,0.00,,weatherlink.com 1.10,2013-05-15 06:41:00,
2013-05-14 23:56:00,48.9,46.0,30.08,NW,304,0.0,3.0,88,0.00,,,0.00,,weatherlink.com 1.10,2013-05-15 06:56:00,